Time,TemperatureF,DewpointF,PressureIn,WindDirection,WindDirectionDegrees,WindSpeedMPH,WindSpeedGustMPH,Humidity,HourlyPrecipIn,Conditions,Clouds,dailyrainin,SoftwareType,DateUTC
2013-07-02 00:12:00,67.0,-99.9,-100.00,NNW,348,16.0,-999.0,-999,-99.99,,,-99.99,,2013-07-02 07:12:00,
2013-07-02 00:20:00,66.0,-99.9,-100.00,NW,325,2.0,-999.0,-999,-99.99,,,-99.99,,2013-07-02 07:20:00,
2013-07-02 01:12:00,66.0,-99.9,-100.00,NW,325,2.0,-999.0,-999,-99.99,,,-99.99,,2013-07-02 08:12:00,
2013-07-02 01:20:00,64.0,-99.9,-100.00,North,9,2.0,-999.0,-999,-99.99,,,-99.99,,2013-07-02 08:20:00,
2013-07-02 02:11:00,64.0,-99.9,-100.00,North,9,2.0,-999.0,-999,-99.99,,,-99.99,,2013-07-02 09:11:00,
2013-07-02 02:20:00,63.0,-99.9,-100.00,WNW,297,3.0,-999.0,-999,-99.99,,,-99.99,,2013-07-02 09:20:00,
2013-07-02 03:01:00,63.0,-99.9,-100.00,WNW,297,3.0,-999.0,-999,-99.99,,,-99.99,,2013-07-02 10:01:00,
2013-07-02 03:11:00,63.0,-99.9,-100.00,WNW,297,3.0,-999.0,-999,-99.99,,,-99.99,,2013-07-02 10:11:00,
2013-07-02 03:20:00,62.0,-99.9,-100.00,SSW,201,5.0,-999.0,-999,-99.99,,,-99.99,,2013-07-02 10:20:00,
2013-07-02 04:11:00,62.0,-99.9,-100.00,SSW,201,5.0,-999.0,-999,-99.99,,,-99.99,,2013-07-02 11:11:00,
2013-07-02 04:20:00,61.0,-99.9,-100.00,SSW,202,2.0,-999.0,-999,-99.99,,,-99.99,,2013-07-02 11:20:00,
2013-07-02 05:11:00,61.0,-99.9,-100.00,SSW,202,2.0,-999.0,-999,-99.99,,,-99.99,,2013-07-02 12:11:00,
2013-07-02 05:20:00,61.0,-99.9,-100.00,WSW,245,3.0,-999.0,-999,-99.99,,,-99.99,,2013-07-02 12:20:00,
2013-07-02 06:11:00,61.0,-99.9,-100.00,WSW,245,3.0,-999.0,-999,-99.99,,,-99.99,,2013-07-02 13:11:00,
2013-07-02 06:20:00,61.0,-99.9,-100.00,ESE,117,0.0,-999.0,-999,-99.99,,,-99.99,,2013-07-02 13:20:00,
2013-07-02 07:11:00,61.0,-99.9,-100.00,ESE,117,0.0,-999.0,-999,-99.99,,,-99.99,,2013-07-02 14:11:00,
2013-07-02 07:20:00,62.0,-99.9,-100.00,East,88,1.0,-999.0,-999,-99.99,,,-99.99,,2013-07-02 14:20:00,
2013-07-02 08:12:00,62.0,-99.9,-100.00,East,88,1.0,-999.0,-999,-99.99,,,-99.99,,2013-07-02 15:12:00,
2013-07-02 08:20:00,64.0,-99.9,-100.00,NNE,12,6.0,-999.0,-999,-99.99,,,-99.99,,2013-07-02 15:20:00,
2013-07-02 09:12:00,64.0,-99.9,-100.00,NNE,12,6.0,-999.0,-999,-99.99,,,-99.99,,2013-07-02 16:12:00,
2013-07-02 09:20:00,64.0,-99.9,-100.00,East,91,7.0,-999.0,-999,-99.99,,,-99.99,,2013-07-02 16:20:00,
2013-07-02 10:12:00,64.0,-99.9,-100.00,East,91,7.0,-999.0,-999,-99.99,,,-99.99,,2013-07-02 17:12:00,
2013-07-02 10:20:00,64.0,-99.9,-100.00,East,89,8.0,-999.0,-999,-99.99,,,-99.99,,2013-07-02 17:20:00,
2013-07-02 11:12:00,64.0,-99.9,-100.00,East,89,8.0,-999.0,-999,-99.99,,,-99.99,,2013-07-02 18:12:00,
2013-07-02 11:20:00,65.0,-99.9,-100.00,East,91,8.0,-999.0,-999,-99.99,,,-99.99,,2013-07-02 18:20:00,
2013-07-02 12:12:00,65.0,-99.9,-100.00,East,91,8.0,-999.0,-999,-99.99,,,-99.99,,2013-07-02 19:12:00,
2013-07-02 12:20:00,67.0,-99.9,-100.00,East,92,8.0,-999.0,-999,-99.99,,,-99.99,,2013-07-02 19:20:00,
2013-07-02 13:11:00,67.0,-99.9,-100.00,East,92,8.0,-999.0,-999,-99.99,,,-99.99,,2013-07-02 20:11:00,
2013-07-02 13:20:00,71.0,-99.9,-100.00,NNE,15,1.0,-999.0,-999,-99.99,,,-99.99,,2013-07-02 20:20:00,
2013-07-02 14:11:00,71.0,-99.9,-100.00,NNE,15,1.0,-999.0,-999,-99.99,,,-99.99,,2013-07-02 21:11:00,
2013-07-02 14:20:00,74.0,-99.9,-100.00,NE,36,6.0,-999.0,-999,-99.99,,,-99.99,,2013-07-02 21:20:00,
2013-07-02 15:11:00,74.0,-99.9,-100.00,NE,36,6.0,-999.0,-999,-99.99,,,-99.99,,2013-07-02 22:11:00,
2013-07-02 15:20:00,74.0,-99.9,-100.00,NW,313,5.0,-999.0,-999,-99.99,,,-99.99,,2013-07-02 22:20:00,
2013-07-02 16:12:00,74.0,-99.9,-100.00,NW,313,5.0,-999.0,-999,-99.99,,,-99.99,,2013-07-02 23:12:00,
2013-07-02 16:20:00,74.0,-99.9,-100.00,North,9,13.0,-999.0,-999,-99.99,,,-99.99,,2013-07-02 23:20:00,
2013-07-02 17:12:00,74.0,-99.9,-100.00,North,9,13.0,-999.0,-999,-99.99,,,-99.99,,2013-07-03 00:12:00,
2013-07-02 17:20:00,77.0,-99.9,-100.00,North,349,7.0,-999.0,-999,-99.99,,,-99.99,,2013-07-03 00:20:00,
2013-07-02 18:11:00,77.0,-99.9,-100.00,North,349,7.0,-999.0,-999,-99.99,,,-99.99,,2013-07-03 01:11:00,
2013-07-02 18:20:00,76.0,-99.9,-100.00,NE,55,5.0,-999.0,-999,-99.99,,,-99.99,,2013-07-03 01:20:00,
2013-07-02 19:15:00,76.0,-99.9,-100.00,NE,55,5.0,-999.0,-999,-99.99,,,-99.99,,2013-07-03 02:15:00,
2013-07-02 19:20:00,72.0,-99.9,-100.00,North,354,15.0,-999.0,-999,-99.99,,,-99.99,,2013-07-03 02:20:00,
2013-07-02 20:13:00,72.0,-99.9,-100.00,North,354,15.0,-999.0,-999,-99.99,,,-99.99,,2013-07-03 03:13:00,
2013-07-02 20:20:00,70.0,-99.9,-100.00,NW,325,15.0,-999.0,-999,-99.99,,,-99.99,,2013-07-03 03:20:00,
2013-07-02 21:11:00,70.0,-99.9,-100.00,NW,325,15.0,-999.0,-999,-99.99,,,-99.99,,2013-07-03 04:11:00,
2013-07-02 21:20:00,67.0,-99.9,-100.00,NNW,331,6.0,-999.0,-999,-99.99,,,-99.99,,2013-07-03 04:20:00,
2013-07-02 22:02:00,67.0,-99.9,-100.00,NNW,331,6.0,-999.0,-999,-99.99,,,-99.99,,2013-07-03 05:02:00,
2013-07-02 22:12:00,67.0,-99.9,-100.00,NNW,331,6.0,-999.0,-999,-99.99,,,-99.99,,2013-07-03 05:12:00,
2013-07-02 23:20:00,65.0,-99.9,-100.00,NNW,343,6.0,-999.0,-999,-99.99,,,-99.99,,2013-07-03 06:20:00,